Погода в Пулинах

Украина / Житомирская область     50°27′58″N   28°15′39″E
В апреле 2022 года жителям России запретили посещать сайт meteo.paraplan.net по решению Генеральной прокуратуры. Аудитория сайта уменьшилась в 10 раз. Владельцы сайта не видят смысла в поддержке погодного сервера в таких условиях. Сайт будет закрыт в октябре.
темп.,
°C
ветер,
м/с
пор.,
м/с
влажн.,
%
обл.,
%
осадки,
мм/ч
давл.,
гПа
погр.,
м
25 сентября, вс
вс2500:00+6з368526 0.0 101797
03:00+9з386271 0.0 1017201
06:00+5з36885 0.0 101791
09:00+8з46815 0.0 1017216
12:00+13з466051 0.0 10171033
15:00+14зюз5660100 0.0 10151093
18:00+13зюз357210 0.0 1014135
21:00+9юз228399 0.0 101518
26 сентября, пн
пн2600:00+8юз3484100 0.0 101450
03:00+9ююз2279100 0.0 101326
06:00+10ююз3685100 0.2 1012175
09:00+10ю2597100 1.6 1012189
12:00+11ююз3690100 0.1 1011242
15:00+11ююз2393100 0.8 1011125
18:00+10вюв2496100 2.0 1010140
21:00+10юв3596100 2.1 1010140
27 сентября, вт
вт2700:00+10юв2296100 0.1 100936
03:00+9вюв2296100 0.1 100737
06:00+10в3595100 0.0 1006125
09:00+10в3795100 0.1 1005244
12:00+12в4692100 0.9 1003416
15:00+11св4898100 4.0 1001349
18:00+11ссв3599100 0.3 1000264
21:00+11зсз2399100 0.3 1000192
28 сентября, ср
ср2800:00+11з3699100 0.0 1000318
03:00+11з4898100 0.1 1000425
06:00+10з5895100 0.0 1000464
09:00+11з479268 0.0 1001346
12:00+15з5777100 0.0 1002764
15:00+15з787296 0.1 10031084
18:00+13зсз37750 0.0 1004216
21:00+10зюз33845 0.0 100625
29 сентября, чт
чт2900:00+9ю33855 0.0 100726
03:00+8ююв349133 0.0 100861
06:00+8ююв4893100 0.0 1008145
09:00+11юв41086100 0.0 1008269
12:00+16ююв5872100 0.0 1008535
15:00+19ююв676391 0.0 1007904
18:00+17юв3678100 0.0 1007108
21:00+14ююв4886100 0.1 1008127